Overview Statistics Trail Chart Weather Telemetry Raw packets
 

This is the latest recevied weather packets stored in our database for station/object SV9TNF-56. If no packets are shown the sender has not sent any weather packets the latest 10 day(s).

<< 93 94 95 96 97 98 99 >>
Time Temp. Humidity Pressure Rain* Wind** Luminosity Snow
1787967998 24.44° C 69% 1018.3 hPa 0 mm 35.76 m/s, 31° - -
1787967698 24.44° C 69% 1018.3 hPa 0 mm 23.69 m/s, 92° - -
1787967398 24.44° C 69% 1018.6 hPa 0 mm 23.25 m/s, 48° - -
1787967098 24.44° C 69% 1018.6 hPa 0 mm 22.8 m/s, 91° - -
1787966798 24.44° C 69% 1018.6 hPa 0 mm 26.82 m/s, 105° - -
1787966497 24.44° C 70% 1018.6 hPa 0 mm 16.09 m/s, 48° - -
1787966197 24.44° C 70% 1018.6 hPa 0 mm 16.99 m/s, 48° - -
1787965897 24.44° C 69% 1019 hPa 0 mm 26.38 m/s, 36° - -
1787965597 24.44° C 72% 1019 hPa 0 mm 20.56 m/s, 66° - -
1787965297 24.44° C 72% 1019 hPa 0 mm 17.88 m/s, 86° - -
1787964997 24.44° C 72% 1019 hPa 0 mm 13.41 m/s, 78° - -
1787964697 24.44° C 71% 1019.3 hPa 0 mm 21.9 m/s, 72° - -
1787964397 23.89° C 73% 1019.3 hPa 0 mm 13.86 m/s, 127° - -
1787964097 24.44° C 76% 1019.3 hPa 0 mm 17.88 m/s, 60° - -
1787963797 24.44° C 76% 1019 hPa 0 mm 19.67 m/s, 72° - -
1787963497 24.44° C 76% 1019 hPa 0 mm 13.86 m/s, 36° - -
1787963196 24.44° C 78% 1019 hPa 0 mm 13.86 m/s, 30° - -
1787962896 24.44° C 79% 1019 hPa 0 mm 24.14 m/s, 99° - -
1787962596 23.89° C 79% 1019 hPa 0 mm 15.2 m/s, 37° - -
1787962296 24.44° C 81% 1019 hPa 0 mm 17.88 m/s, 60° - -
1787961996 24.44° C 81% 1019 hPa 0 mm 22.8 m/s, 54° - -
1787961696 24.44° C 81% 1019 hPa 0 mm 17.88 m/s, 54° - -
1787961396 24.44° C 80% 1019 hPa 0 mm 16.99 m/s, 66° - -
1787961096 24.44° C 79% 1019 hPa 0 mm 19.67 m/s, 48° - -
1787960795 24.44° C 79% 1019 hPa 0 mm 17.88 m/s, 79° - -

* Rain latest hour (hover to see other rain measurements)
** Current wind speed in m/s (hover to see current wind gust speed)